| time (UTC) | temp F | wind direction | speed MPH | gust MPH | rain 1hr in | rain 24hr in | rain mn in | humidity % | barometer mb |
| 20260502195023 | 88 | 69 | 7.0 | 13.0 | 0.00 | 0.00 | 0.00 | 17 | 1010.8 |
| 20260502194522 | 88 | 60 | 8.0 | 14.0 | 0.00 | 0.00 | 0.00 | 19 | 1010.8 |
| 20260502194022 | 88 | 50 | 8.0 | 15.0 | 0.00 | 0.00 | 0.00 | 20 | 1010.8 |
| 20260502193522 | 87 | 115 | 5.0 | 14.0 | 0.00 | 0.00 | 0.00 | 20 | 1010.9 |
| 20260502193023 | 87 | 144 | 9.0 | 14.0 | 0.00 | 0.00 | 0.00 | 20 | 1011.1 |
| 20260502192521 | 88 | 132 | 8.0 | 14.0 | 0.00 | 0.00 | 0.00 | 21 | 1011.1 |
| 20260502192019 | 87 | 134 | 7.0 | 12.0 | 0.00 | 0.00 | 0.00 | 21 | 1011.2 |
| 20260502191518 | 86 | 111 | 7.0 | 17.0 | 0.00 | 0.00 | 0.00 | 21 | 1011.3 |
| 20260502191017 | 86 | 113 | 9.0 | 17.0 | 0.00 | 0.00 | 0.00 | 20 | 1011.4 |
| 20260502190517 | 87 | 121 | 7.0 | 17.0 | 0.00 | 0.00 | 0.00 | 21 | 1011.5 |
| 20260502190016 | 87 | 146 | 8.0 | 17.0 | 0.00 | 0.00 | 0.00 | 21 | 1011.6 |
| 20260502185515 | 87 | 141 | 9.0 | 16.0 | 0.00 | 0.00 | 0.00 | 21 | 1011.7 |
| 20260502185014 | 86 | 117 | 8.0 | 16.0 | 0.00 | 0.00 | 0.00 | 22 | 1011.7 |
| 20260502184525 | 86 | 136 | 8.0 | 16.0 | 0.00 | 0.00 | 0.00 | 22 | 1011.7 |
| 20260502184013 | 85 | 129 | 10.0 | 17.0 | 0.00 | 0.00 | 0.00 | 22 | 1011.8 |
| 20260502183515 | 86 | 162 | 10.0 | 17.0 | 0.00 | 0.00 | 0.00 | 22 | 1012.0 |
| 20260502183025 | 86 | 128 | 8.0 | 15.0 | 0.00 | 0.00 | 0.00 | 21 | 1012.1 |
| 20260502182511 | 86 | 126 | 8.0 | 14.0 | 0.00 | 0.00 | 0.00 | 24 | 1012.1 |
| 20260502182009 | 85 | 127 | 8.0 | 16.0 | 0.00 | 0.00 | 0.00 | 24 | 1012.2 |
| 20260502181508 | 85 | 82 | 9.0 | 20.0 | 0.00 | 0.00 | 0.00 | 22 | 1012.4 |
| 20260502181006 | 85 | 98 | 9.0 | 20.0 | 0.00 | 0.00 | 0.00 | 23 | 1012.4 |
| 20260502180505 | 85 | 88 | 9.0 | 15.0 | 0.00 | 0.00 | 0.00 | 23 | 1012.3 |
| 20260502164043 | 82 | 138 | 8.0 | 14.0 | 0.00 | 0.00 | 0.00 | 18 | 1012.7 |
| 20260502163542 | 82 | 127 | 9.0 | 14.0 | 0.00 | 0.00 | 0.00 | 19 | 1012.6 |
| 20260502163049 | 81 | 95 | 9.0 | 14.0 | 0.00 | 0.00 | 0.00 | 19 | 1012.7 |
| 20260502162540 | 81 | 108 | 9.0 | 18.0 | 0.00 | 0.00 | 0.00 | 19 | 1012.7 |
| 20260502162037 | 81 | 144 | 10.0 | 18.0 | 0.00 | 0.00 | 0.00 | 18 | 1012.6 |
| 20260502161537 | 81 | 94 | 8.0 | 16.0 | 0.00 | 0.00 | 0.00 | 19 | 1012.6 |
| 20260502161035 | 81 | 104 | 10.0 | 16.0 | 0.00 | 0.00 | 0.00 | 19 | 1012.5 |
| 20260502160535 | 81 | 114 | 7.0 | 13.0 | 0.00 | 0.00 | 0.00 | 19 | 1012.6 |
| 20260502152021 | 79 | 74 | 10.0 | 17.0 | 0.00 | 0.00 | 0.00 | 20 | 1012.2 |
| 20260502151521 | 79 | 110 | 7.0 | 15.0 | 0.00 | 0.00 | 0.00 | 20 | 1012.2 |
| 20260502151018 | 78 | 69 | 8.0 | 14.0 | 0.00 | 0.00 | 0.00 | 20 | 1012.1 |
| 20260502150518 | 78 | 76 | 6.0 | 16.0 | 0.00 | 0.00 | 0.00 | 20 | 1012.0 |
| 20260502130547 | 67 | 107 | 3.0 | 7.0 | 0.00 | 0.00 | 0.00 | 27 | 1010.7 |
| 20260502123542 | 64 | 104 | 1.0 | 4.0 | 0.00 | 0.00 | 0.00 | 28 | 1010.3 |
| 20260502123041 | 64 | 107 | 1.0 | 3.0 | 0.00 | 0.00 | 0.00 | 28 | 1010.3 |
| 20260502122540 | 63 | 104 | 1.0 | 4.0 | 0.00 | 0.00 | 0.00 | 29 | 1010.2 |
| 20260502122040 | 63 | 104 | 2.0 | 4.0 | 0.00 | 0.00 | 0.00 | 28 | 1010.2 |
| 20260502121547 | 64 | 104 | 1.0 | 4.0 | 0.00 | 0.00 | 0.00 | 27 | 1010.1 |
| 20260502121039 | 65 | 104 | 1.0 | 6.0 | 0.00 | 0.00 | 0.00 | 26 | 1010.0 |
| 20260502120540 | 67 | 104 | 2.0 | 6.0 | 0.00 | 0.00 | 0.00 | 26 | 1010.0 |
| 20260502115536 | 67 | 120 | 2.0 | 6.0 | 0.00 | 0.00 | 0.00 | 25 | 1009.9 |
| 20260502115036 | 68 | 120 | 2.0 | 4.0 | 0.00 | 0.00 | 0.00 | 25 | 1009.9 |
| 20260502114536 | 69 | 121 | 1.0 | 7.0 | 0.00 | 0.00 | 0.00 | 24 | 1009.9 |
| 20260502114036 | 69 | 121 | 3.0 | 8.0 | 0.00 | 0.00 | 0.00 | 24 | 1009.9 |
| 20260502113535 | 70 | 126 | 4.0 | 10.0 | 0.00 | 0.00 | 0.00 | 24 | 1009.9 |
| 20260502113036 | 70 | 119 | 6.0 | 10.0 | 0.00 | 0.00 | 0.00 | 24 | 1009.9 |
| 20260502112535 | 70 | 123 | 6.0 | 11.0 | 0.00 | 0.00 | 0.00 | 24 | 1009.8 |
| 20260502112035 | 69 | 129 | 6.0 | 11.0 | 0.00 | 0.00 | 0.00 | 25 | 1009.8 |
| 20260502111535 | 68 | 114 | 6.0 | 10.0 | 0.00 | 0.00 | 0.00 | 25 | 1009.8 |
| 20260502111036 | 68 | 112 | 2.0 | 7.0 | 0.00 | 0.00 | 0.00 | 24 | 1009.7 |
| 20260502110534 | 69 | 118 | 2.0 | 6.0 | 0.00 | 0.00 | 0.00 | 24 | 1009.7 |
| 20260502110034 | 69 | 115 | 2.0 | 6.0 | 0.00 | 0.00 | 0.00 | 24 | 1009.8 |
| 20260502105534 | 69 | 117 | 1.0 | 6.0 | 0.00 | 0.00 | 0.00 | 24 | 1009.8 |
| 20260502105033 | 68 | 116 | 3.0 | 6.0 | 0.00 | 0.00 | 0.00 | 24 | 1009.9 |
| 20260502104533 | 68 | 111 | 3.0 | 6.0 | 0.00 | 0.00 | 0.00 | 24 | 1009.9 |
| 20260502104033 | 67 | 101 | 3.0 | 6.0 | 0.00 | 0.00 | 0.00 | 25 | 1009.9 |
| 20260502103533 | 66 | 69 | 2.0 | 4.0 | 0.00 | 0.00 | 0.00 | 25 | 1009.8 |
| 20260502103038 | 66 | 27 | 2.0 | 3.0 | 0.00 | 0.00 | 0.00 | 24 | 1009.9 |
| 20260502102532 | 66 | 26 | 1.0 | 3.0 | 0.00 | 0.00 | 0.00 | 24 | 1009.8 |
| 20260502102032 | 66 | 26 | 1.0 | 3.0 | 0.00 | 0.00 | 0.00 | 24 | 1009.8 |
| 20260502101542 | 66 | 25 | 1.0 | 3.0 | 0.00 | 0.00 | 0.00 | 24 | 1009.7 |
| 20260502101030 | 65 | 24 | 1.0 | 3.0 | 0.00 | 0.00 | 0.00 | 25 | 1009.8 |
| 20260502100530 | 63 | 24 | 1.0 | 3.0 | 0.00 | 0.00 | 0.00 | 26 | 1009.8 |
| 20260502091023 | 65 | 22 | 0.0 | 2.0 | 0.00 | 0.00 | 0.00 | 25 | 1009.5 |
| 20260502090521 | 65 | 22 | 0.0 | 2.0 | 0.00 | 0.00 | 0.00 | 24 | 1009.5 |
| 20260502071504 | 72 | 13 | 0.0 | 2.0 | 0.00 | 0.00 | 0.00 | 16 | 1009.4 |
| 20260502071003 | 73 | 13 | 0.0 | 3.0 | 0.00 | 0.00 | 0.00 | 16 | 1009.3 |
| 20260502070502 | 74 | 13 | 1.0 | 3.0 | 0.00 | 0.00 | 0.00 | 16 | 1009.4 |
| 20260502070119 | 74 | 11 | 1.0 | 4.0 | 0.00 | 0.00 | 0.00 | 15 | 1009.3 |
| 20260502065558 | 75 | 11 | 2.0 | 5.0 | 0.00 | 0.00 | 0.00 | 15 | 1009.3 |
| 20260502065058 | 76 | 11 | 2.0 | 6.0 | 0.00 | 0.00 | 0.00 | 15 | 1009.3 |
| 20260502064559 | 76 | 5 | 3.0 | 6.0 | 0.00 | 0.00 | 0.00 | 14 | 1009.3 |
| 20260502064100 | 77 | 9 | 3.0 | 10.0 | 0.00 | 0.00 | 0.00 | 14 | 1009.3 |
| 20260502063558 | 77 | 335 | 5.0 | 10.0 | 0.00 | 0.00 | 0.00 | 14 | 1009.2 |
| 20260502063058 | 77 | 346 | 5.0 | 9.0 | 0.00 | 0.00 | 0.00 | 14 | 1009.1 |
| 20260502062558 | 77 | 360 | 5.0 | 9.0 | 0.00 | 0.00 | 0.00 | 14 | 1009.1 |
| 20260502062057 | 76 | 349 | 5.0 | 9.0 | 0.00 | 0.00 | 0.00 | 14 | 1009.0 |
| 20260502061557 | 75 | 325 | 4.0 | 9.0 | 0.00 | 0.00 | 0.00 | 14 | 1009.0 |
| 20260502061057 | 75 | 323 | 3.0 | 6.0 | 0.00 | 0.00 | 0.00 | 14 | 1008.9 |
| 20260502060559 | 75 | 343 | 3.0 | 6.0 | 0.00 | 0.00 | 0.00 | 14 | 1008.8 |
| 20260502060056 | 75 | 360 | 2.0 | 8.0 | 0.00 | 0.00 | 0.00 | 14 | 1008.7 |
| 20260502055557 | 75 | 17 | 3.0 | 9.0 | 0.00 | 0.00 | 0.00 | 14 | 1008.7 |
| 20260502055056 | 74 | 360 | 2.0 | 9.0 | 0.00 | 0.00 | 0.00 | 15 | 1008.8 |
| 20260502054556 | 73 | 275 | 0.0 | 2.0 | 0.00 | 0.00 | 0.00 | 15 | 1008.8 |
| 20260502054055 | 74 | 275 | 0.0 | 2.0 | 0.00 | 0.00 | 0.00 | 15 | 1008.9 |
| 20260502053559 | 75 | 275 | 0.0 | 3.0 | 0.00 | 0.00 | 0.00 | 15 | 1008.8 |
| 20260502053119 | 75 | 275 | 0.0 | 3.0 | 0.00 | 0.00 | 0.00 | 15 | 1008.7 |
| 20260502052555 | 76 | 275 | 1.0 | 3.0 | 0.00 | 0.00 | 0.00 | 15 | 1008.6 |
| 20260502052055 | 77 | 275 | 1.0 | 3.0 | 0.00 | 0.00 | 0.00 | 15 | 1008.6 |
| 20260502051606 | 78 | 275 | 1.0 | 5.0 | 0.00 | 0.00 | 0.00 | 14 | 1008.5 |
| 20260502051058 | 78 | 275 | 1.0 | 5.0 | 0.00 | 0.00 | 0.00 | 14 | 1008.4 |
| 20260502050556 | 78 | 280 | 2.0 | 4.0 | 0.00 | 0.00 | 0.00 | 14 | 1008.4 |
| 20260502050057 | 79 | 281 | 1.0 | 5.0 | 0.00 | 0.00 | 0.00 | 13 | 1008.4 |
| 20260502045554 | 80 | 282 | 3.0 | 10.0 | 0.00 | 0.00 | 0.00 | 13 | 1008.4 |
| 20260502045055 | 79 | 279 | 5.0 | 10.0 | 0.00 | 0.00 | 0.00 | 14 | 1008.3 |
| 20260502044554 | 78 | 270 | 4.0 | 9.0 | 0.00 | 0.00 | 0.00 | 16 | 1008.2 |
| 20260502044054 | 79 | 245 | 1.0 | 5.0 | 0.00 | 0.00 | 0.00 | 16 | 1008.2 |
| 20260502043552 | 79 | 252 | 3.0 | 9.0 | 0.00 | 0.00 | 0.00 | 16 | 1008.2 |
| 20260502043057 | 79 | 260 | 5.0 | 12.0 | 0.00 | 0.00 | 0.00 | 17 | 1008.3 |
| 20260502042551 | 79 | 272 | 7.0 | 12.0 | 0.00 | 0.00 | 0.00 | 17 | 1008.1 |
| 20260502042052 | 79 | 273 | 7.0 | 9.0 | 0.00 | 0.00 | 0.00 | 18 | 1008.0 |
| 20260502041614 | 79 | 218 | 1.0 | 6.0 | 0.00 | 0.00 | 0.00 | 17 | 1007.8 |
| 20260502041050 | 79 | 229 | 3.0 | 7.0 | 0.00 | 0.00 | 0.00 | 18 | 1007.9 |
| 20260502040549 | 79 | 213 | 4.0 | 7.0 | 0.00 | 0.00 | 0.00 | 18 | 1007.7 |
| 20260502040049 | 79 | 235 | 1.0 | 5.0 | 0.00 | 0.00 | 0.00 | 18 | 1007.7 |
| 20260502035549 | 80 | 242 | 2.0 | 5.0 | 0.00 | 0.00 | 0.00 | 18 | 1007.5 |
| 20260502035050 | 80 | 228 | 3.0 | 5.0 | 0.00 | 0.00 | 0.00 | 18 | 1007.4 |
| 20260502034549 | 80 | 239 | 2.0 | 7.0 | 0.00 | 0.00 | 0.00 | 18 | 1007.5 |
| 20260502034049 | 80 | 246 | 3.0 | 7.0 | 0.00 | 0.00 | 0.00 | 18 | 1007.3 |
| 20260502033547 | 80 | 243 | 3.0 | 7.0 | 0.00 | 0.00 | 0.00 | 17 | 1007.3 |
| 20260502033102 | 80 | 234 | 1.0 | 7.0 | 0.00 | 0.00 | 0.00 | 17 | 1007.2 |
| 20260502032547 | 81 | 234 | 3.0 | 7.0 | 0.00 | 0.00 | 0.00 | 17 | 1007.1 |
| 20260502032047 | 81 | 247 | 2.0 | 8.0 | 0.00 | 0.00 | 0.00 | 16 | 1007.0 |
| 20260502031548 | 82 | 229 | 3.0 | 8.0 | 0.00 | 0.00 | 0.00 | 15 | 1007.1 |
| 20260502031050 | 82 | 222 | 4.0 | 8.0 | 0.00 | 0.00 | 0.00 | 15 | 1007.0 |
| 20260502030546 | 82 | 223 | 4.0 | 10.0 | 0.00 | 0.00 | 0.00 | 15 | 1006.9 |
| 20260502030046 | 82 | 214 | 5.0 | 10.0 | 0.00 | 0.00 | 0.00 | 15 | 1006.9 |
| 20260502025546 | 82 | 258 | 6.0 | 10.0 | 0.00 | 0.00 | 0.00 | 15 | 1006.9 |
| 20260502025045 | 82 | 252 | 4.0 | 9.0 | 0.00 | 0.00 | 0.00 | 15 | 1006.9 |
| 20260502024545 | 82 | 257 | 2.0 | 7.0 | 0.00 | 0.00 | 0.00 | 16 | 1006.7 |
| 20260502024045 | 82 | 250 | 0.0 | 7.0 | 0.00 | 0.00 | 0.00 | 16 | 1006.6 |
| 20260502023545 | 83 | 250 | 2.0 | 7.0 | 0.00 | 0.00 | 0.00 | 16 | 1006.5 |
| 20260502023049 | 83 | 248 | 3.0 | 6.0 | 0.00 | 0.00 | 0.00 | 16 | 1006.5 |
| 20260502022545 | 83 | 202 | 3.0 | 10.0 | 0.00 | 0.00 | 0.00 | 16 | 1006.6 |
| 20260502022047 | 84 | 209 | 5.0 | 11.0 | 0.00 | 0.00 | 0.00 | 16 | 1006.4 |
| 20260502021544 | 84 | 201 | 7.0 | 11.0 | 0.00 | 0.00 | 0.00 | 16 | 1006.3 |
| 20260502021044 | 84 | 208 | 4.0 | 10.0 | 0.00 | 0.00 | 0.00 | 16 | 1006.5 |
| 20260502020544 | 84 | 198 | 4.0 | 13.0 | 0.00 | 0.00 | 0.00 | 17 | 1006.5 |
| 20260502020048 | 85 | 195 | 7.0 | 13.0 | 0.00 | 0.00 | 0.00 | 17 | 1006.3 |
| 20260502015543 | 85 | 223 | 8.0 | 12.0 | 0.00 | 0.00 | 0.00 | 16 | 1006.3 |
| 20260502015043 | 85 | 229 | 5.0 | 10.0 | 0.00 | 0.00 | 0.00 | 16 | 1006.3 |
| 20260502014543 | 85 | 204 | 6.0 | 10.0 | 0.00 | 0.00 | 0.00 | 16 | 1006.2 |
| 20260502014042 | 86 | 223 | 7.0 | 10.0 | 0.00 | 0.00 | 0.00 | 15 | 1006.2 |
| 20260502013542 | 86 | 188 | 4.0 | 9.0 | 0.00 | 0.00 | 0.00 | 15 | 1006.1 |
| 20260502013042 | 86 | 203 | 5.0 | 11.0 | 0.00 | 0.00 | 0.00 | 15 | 1006.1 |
| 20260502012542 | 86 | 193 | 6.0 | 13.0 | 0.00 | 0.00 | 0.00 | 15 | 1006.2 |
| 20260502012042 | 86 | 228 | 5.0 | 14.0 | 0.00 | 0.00 | 0.00 | 15 | 1006.1 |
| 20260502011544 | 87 | 242 | 8.0 | 14.0 | 0.00 | 0.00 | 0.00 | 15 | 1006.1 |
| 20260502011041 | 87 | 200 | 4.0 | 9.0 | 0.00 | 0.00 | 0.00 | 14 | 1006.1 |
| 20260502010540 | 87 | 230 | 3.0 | 13.0 | 0.00 | 0.00 | 0.00 | 14 | 1006.1 |
| 20260502010040 | 87 | 261 | 6.0 | 12.0 | 0.00 | 0.00 | 0.00 | 14 | 1006.1 |
| 20260502005539 | 87 | 195 | 6.0 | 16.0 | 0.00 | 0.00 | 0.00 | 14 | 1006.1 |
| 20260502005039 | 87 | 215 | 7.0 | 16.0 | 0.00 | 0.00 | 0.00 | 14 | 1006.1 |
| 20260502004539 | 87 | 165 | 4.0 | 13.0 | 0.00 | 0.00 | 0.00 | 15 | 1006.1 |
| 20260502004037 | 88 | 217 | 6.0 | 13.0 | 0.00 | 0.00 | 0.00 | 14 | 1006.2 |
| 20260502003538 | 88 | 234 | 6.0 | 14.0 | 0.00 | 0.00 | 0.00 | 13 | 1006.1 |
| 20260502003038 | 88 | 206 | 4.0 | 12.0 | 0.00 | 0.00 | 0.00 | 13 | 1006.1 |
| 20260502002537 | 88 | 213 | 3.0 | 6.0 | 0.00 | 0.00 | 0.00 | 13 | 1006.2 |
| 20260502002037 | 89 | 260 | 1.0 | 6.0 | 0.00 | 0.00 | 0.00 | 12 | 1006.2 |
| 20260502001537 | 89 | 265 | 2.0 | 8.0 | 0.00 | 0.00 | 0.00 | 12 | 1006.2 |
| 20260502001036 | 89 | 278 | 4.0 | 10.0 | 0.00 | 0.00 | 0.00 | 12 | 1006.2 |
| 20260502000535 | 89 | 249 | 6.0 | 10.0 | 0.00 | 0.00 | 0.00 | 12 | 1006.3 |
| 20260502000035 | 88 | 212 | 4.0 | 10.0 | 0.00 | 0.00 | 0.00 | 14 | 1006.3 |
| 20260501235534 | 87 | 190 | 0.0 | 6.0 | 0.00 | 0.00 | 0.00 | 14 | 1006.2 |
| 20260501235034 | 87 | 200 | 2.0 | 10.0 | 0.00 | 0.00 | 0.00 | 15 | 1006.3 |
| 20260501234534 | 88 | 188 | 5.0 | 10.0 | 0.00 | 0.00 | 0.00 | 14 | 1006.3 |
| 20260501234034 | 88 | 288 | 0.0 | 9.0 | 0.00 | 0.00 | 0.00 | 14 | 1006.4 |
| 20260501233535 | 88 | 205 | 1.0 | 6.0 | 0.00 | 0.00 | 0.00 | 15 | 1006.3 |
| 20260501233033 | 87 | 182 | 3.0 | 6.0 | 0.00 | 0.00 | 0.00 | 15 | 1006.3 |
| 20260501232534 | 87 | 207 | 1.0 | 4.0 | 0.00 | 0.00 | 0.00 | 16 | 1006.4 |
| 20260501232033 | 87 | 206 | 2.0 | 5.0 | 0.00 | 0.00 | 0.00 | 16 | 1006.5 |
| 20260501231549 | 88 | 207 | 2.0 | 8.0 | 0.00 | 0.00 | 0.00 | 15 | 1006.6 |
| 20260501231032 | 87 | 239 | 3.0 | 8.0 | 0.00 | 0.00 | 0.00 | 16 | 1006.6 |
| 20260501230533 | 87 | 198 | 2.0 | 5.0 | 0.00 | 0.00 | 0.00 | 16 | 1006.5 |
| 20260501230031 | 87 | 242 | 1.0 | 5.0 | 0.00 | 0.00 | 0.00 | 16 | 1006.7 |
| 20260501225531 | 87 | 261 | 0.0 | 10.0 | 0.00 | 0.00 | 0.00 | 16 | 1006.6 |
| 20260501225033 | 89 | 279 | 3.0 | 12.0 | 0.00 | 0.00 | 0.00 | 16 | 1006.8 |
| 20260501224528 | 88 | 268 | 4.0 | 12.0 | 0.00 | 0.00 | 0.00 | 16 | 1006.9 |
| 20260501224028 | 86 | 152 | 0.0 | 6.0 | 0.00 | 0.00 | 0.00 | 17 | 1007.1 |
| 20260501223528 | 87 | 206 | 0.0 | 6.0 | 0.00 | 0.00 | 0.00 | 17 | 1007.1 |
| 20260501223046 | 88 | 232 | 2.0 | 10.0 | 0.00 | 0.00 | 0.00 | 16 | 1007.2 |
| 20260501222527 | 88 | 253 | 3.0 | 10.0 | 0.00 | 0.00 | 0.00 | 16 | 1007.2 |
| 20260501222026 | 87 | 252 | 5.0 | 9.0 | 0.00 | 0.00 | 0.00 | 17 | 1007.3 |
| 20260501221527 | 87 | 215 | 2.0 | 9.0 | 0.00 | 0.00 | 0.00 | 17 | 1007.3 |
| 20260501221025 | 86 | 321 | 3.0 | 8.0 | 0.00 | 0.00 | 0.00 | 18 | 1007.3 |
| 20260501220524 | 85 | 194 | 2.0 | 9.0 | 0.00 | 0.00 | 0.00 | 19 | 1007.4 |
| 20260501220024 | 85 | 191 | 1.0 | 12.0 | 0.00 | 0.00 | 0.00 | 19 | 1007.5 |
| 20260501215524 | 87 | 256 | 4.0 | 12.0 | 0.00 | 0.00 | 0.00 | 17 | 1007.7 |
| 20260501215025 | 87 | 252 | 7.0 | 14.0 | 0.00 | 0.00 | 0.00 | 17 | 1007.6 |
| 20260501214523 | 86 | 248 | 0.0 | 9.0 | 0.00 | 0.00 | 0.00 | 18 | 1007.8 |
| 20260501214022 | 86 | 254 | 3.0 | 10.0 | 0.00 | 0.00 | 0.00 | 18 | 1007.9 |
| 20260501213522 | 87 | 263 | 4.0 | 11.0 | 0.00 | 0.00 | 0.00 | 18 | 1008.0 |
| 20260501213022 | 87 | 209 | 4.0 | 11.0 | 0.00 | 0.00 | 0.00 | 18 | 1008.0 |
| 20260501212522 | 87 | 272 | 3.0 | 9.0 | 0.00 | 0.00 | 0.00 | 19 | 1008.1 |
| 20260501212021 | 87 | 254 | 6.0 | 9.0 | 0.00 | 0.00 | 0.00 | 19 | 1008.2 |
| 20260501211521 | 85 | 206 | 0.0 | 11.0 | 0.00 | 0.00 | 0.00 | 19 | 1008.3 |
| 20260501211020 | 86 | 284 | 6.0 | 11.0 | 0.00 | 0.00 | 0.00 | 19 | 1008.4 |
| 20260501210518 | 86 | 215 | 5.0 | 9.0 | 0.00 | 0.00 | 0.00 | 20 | 1008.5 |
| 20260501210018 | 85 | 211 | 0.0 | 9.0 | 0.00 | 0.00 | 0.00 | 20 | 1008.7 |
| 20260501205518 | 85 | 239 | 3.0 | 9.0 | 0.00 | 0.00 | 0.00 | 20 | 1008.7 |
| 20260501205018 | 85 | 186 | 4.0 | 10.0 | 0.00 | 0.00 | 0.00 | 20 | 1008.7 |
| 20260501204523 | 86 | 256 | 6.0 | 10.0 | 0.00 | 0.00 | 0.00 | 20 | 1008.7 |
| 20260501204017 | 84 | 340 | 1.0 | 5.0 | 0.00 | 0.00 | 0.00 | 22 | 1008.8 |
| 20260501203515 | 84 | 250 | 1.0 | 8.0 | 0.00 | 0.00 | 0.00 | 22 | 1008.9 |
| 20260501203014 | 85 | 252 | 2.0 | 8.0 | 0.00 | 0.00 | 0.00 | 22 | 1008.9 |
| 20260501202513 | 82 | 144 | 0.0 | 8.0 | 0.00 | 0.00 | 0.00 | 23 | 1008.9 |
| 20260501202015 | 83 | 144 | 4.0 | 8.0 | 0.00 | 0.00 | 0.00 | 22 | 1008.9 |
| 20260501201512 | 82 | 159 | 4.0 | 6.0 | 0.00 | 0.00 | 0.00 | 23 | 1009.1 |
| 20260501201015 | 82 | 165 | 0.0 | 7.0 | 0.00 | 0.00 | 0.00 | 22 | 1009.1 |
| 20260501200510 | 82 | 165 | 2.0 | 10.0 | 0.00 | 0.00 | 0.00 | 22 | 1009.1 |
| 20260501200010 | 82 | 141 | 3.0 | 11.0 | 0.00 | 0.00 | 0.00 | 22 | 1009.2 |
| 20260501195510 | 83 | 255 | 5.0 | 11.0 | 0.00 | 0.00 | 0.00 | 22 | 1009.2 |